星链-34567 (STARLINK-34567)

导读

STARLINK-34567是美国SpaceX公司星链星座的一员,于2025年7月16日发射入轨,属于低轨互联网通信卫星。星链是全球规模最大的商用低轨卫星星座,依托相控阵通信、激光星间链路等技术,为全球尤其是偏远地区提供高速低延迟宽带服务,累计发射卫星已超9400颗。该卫星入轨将进一步扩充星链网络容量,提升全球网络覆盖与服务稳定性。

基本信息
目录编号:
64795
目录名称:
STARLINK-34567
国际标识:
2025-150F
轨道中心:
EARTH
卫星名称:
星链-34567
卫星全名:
星链-34567 (STARLINK-34567)
卫星状态:
在轨 (已飞行416 天)
发射日期:
2025-07-16 UTC
国别 :
美国 (US)
星等 :
--
轨道信息
数据来源 国际轨道数据 AOE轨道数据
星历时间 2026-09-05T03:47:53+0800
5小时前
查看轨道信息
2026-09-02T16:00:00+0800
2天前
查看轨道信息
半长轴 6950.185km 6950.187km
偏心率 0.000257 0.0002655
轨道倾角 70.002° 70.002°
近地点辐角 267.546° 275.135°
升交点赤经 42.625° 48.909°
平近点角 92.541° 329.182°
近地点 570.261km 570.204km
远地点 573.835km 573.896km
周期 96.107分钟 96.107分钟
每日圈数 14.983328 14.983322
详细信息
固有亮度:
5
最大亮度:
2.5
卫星平台:
Starlink V1.0
覆盖范围:
全球
运营商:
太空探索技术公司
运营商所在国:
美国
制造商(研发单位):
太空探索技术公司
制造商所在国:
美国
使用方式:
暂无
卫星简介
Starlink 计划是 SpaceX 推出的全球卫星互联网项目,通过发射低轨道卫星,为全球尤其是偏远地区提供高速、低延迟的互联网服务。自 2019 年起,Starlink 已部署数千颗卫星,旨在缩小全球数字鸿沟,推动互联网普及。该项目还为军事、航空等行业提供通信支持,带来广泛经济效益。
2D轨道图
3D轨道图
轨道高度分析图
轨道倾角分析图
轨道综合分析图
查看轨道综合分析图
交会数据列表
事件ID 空间交会对象 最接近时刻(TCA) 交会距离 交会风险概率(CRP) 交会风险指数(CRI) 操作
CDM_260907-084404-283106-479521
2026-09-07T
08:44:44+0000
1.104 km
极远距离
7.356323E-6 低风险 0.52
CDM_260903-152106-479508-902922
2026-09-03T
15:21:25+0000
2.337 km
极远距离
1.820345E-6 低风险 0.4